Tracking 25709 objects as of 23-May-2022
HD Live streaming from Space Station
objects crossing your sky now

LEMUR 2 OSCARLATOR

Track LEMUR 2 OSCARLATOR now!
10-day predictions
LEMUR 2 OSCARLATOR is classified as:


NORAD ID: 46299
Int'l Code: 2020-061AD
Perigee: 522.9 km
Apogee: 523.9 km
Inclination: 97.5 °
Period: 95.0 minutes
Semi major axis: 6894 km
RCS: Unknown
Launch date: September 3, 2020
Source: United States (US)
Launch site: FRENCH GUIANA (FRGUI)
aabbcc
Your satellite tracking list
Your tracking list is empty




NASA's NSSDC Master Catalog

Two Line Element Set (TLE):
1 46299U 20061AD  22143.21342238  .00021761  00000-0  11163-2 0  9997
2 46299  97.4505 215.2181 0000673 150.6621 209.4649 15.16553908 94717
Source of the keplerian elements: AFSPC